z/d,0,0,50,50,100,100,200,200,300,300,400,400,500,500,750,750,1000,1000,2000,2000,3000,3000,4000,4000,4700,4700
2016.11.13-01:00,1.50,77.59,1.50,78.01,1.30,71.34,.96,79.95,.77,74.08,.72,63.90,.63,67.59,.64,84.95,.42,61.14,.35,68.68,.23,63.12,.19,30.73,.03,90.00
2016.11.13-02:00,1.46,81.93,1.46,82.01,1.29,73.11,.91,76.98,.76,68.05,.74,59.93,.64,63.92,.58,90.36,.42,63.55,.33,71.35,.20,62.53,.17,24.56,.02,90.00
2016.11.13-03:00,1.38,85.76,1.38,85.72,1.26,74.66,.88,73.72,.78,63.02,.79,58.13,.66,61.62,.53,94.53,.41,66.72,.31,74.03,.18,61.71,.17,21.96,.02,90.00
2016.11.13-04:00,1.26,88.98,1.27,88.95,1.22,75.89,.86,70.57,.82,59.97,.85,58.46,.71,60.91,.48,95.57,.42,69.55,.30,76.21,.18,60.77,.18,23.80,.02,90.00
2016.11.13-05:00,1.13,91.40,1.15,91.41,1.18,76.95,.87,68.06,.88,59.18,.92,60.65,.78,61.95,.45,92.40,.43,71.37,.30,77.63,.20,60.73,.20,29.12,.03,90.00
2016.11.13-06:00,.99,92.18,1.03,92.52,1.15,77.80,.90,66.46,.96,60.13,.98,64.02,.84,64.21,.43,85.46,.45,71.63,.31,77.72,.22,61.25,.23,35.39,.04,90.00
2016.11.13-07:00,.89,91.00,.92,91.57,1.13,78.42,.94,65.81,1.03,62.33,1.04,68.03,.90,67.21,.43,76.75,.47,70.63,.32,76.69,.25,62.09,.26,41.17,.04,90.00
2016.11.13-08:00,.82,87.44,.84,88.01,1.12,78.61,1.00,65.80,1.10,65.21,1.08,72.17,.94,70.52,.46,69.05,.49,69.32,.33,75.27,.27,62.87,.28,45.38,.05,90.00
2016.11.13-09:00,.79,81.48,.80,82.13,1.12,78.30,1.05,66.03,1.16,68.21,1.09,75.98,.95,73.77,.49,63.76,.50,68.27,.34,73.95,.28,63.31,.28,47.79,.05,90.00
2016.11.13-10:00,.77,73.67,.80,75.06,1.11,77.49,1.10,66.23,1.19,70.94,1.07,79.20,.94,76.75,.51,60.77,.51,67.80,.33,73.15,.28,63.46,.27,48.61,.04,90.00
2016.11.13-11:00,.79,65.66,.83,68.26,1.10,76.29,1.13,66.43,1.18,73.37,1.02,81.85,.90,79.50,.53,59.42,.51,68.21,.32,73.15,.26,63.32,.25,47.90,.04,90.00
2016.11.13-12:00,.82,58.68,.88,62.74,1.09,74.74,1.15,66.70,1.16,75.49,.96,83.90,.83,82.02,.53,59.29,.51,69.90,.29,73.70,.23,62.59,.22,45.46,.03,90.00
2016.11.13-13:00,.87,54.49,.96,59.31,1.07,73.09,1.17,67.17,1.12,77.26,.88,85.09,.77,83.98,.53,60.09,.50,73.18,.26,74.37,.20,60.96,.18,41.08,.02,90.00
2016.11.13-14:00,.94,53.58,1.03,58.19,1.06,71.80,1.18,67.94,1.08,78.53,.81,84.95,.71,84.65,.53,61.25,.48,77.92,.23,74.34,.17,58.70,.15,36.21,.01,90.00
2016.11.13-15:00,1.00,54.97,1.09,58.90,1.05,71.00,1.19,69.04,1.04,79.11,.76,83.01,.66,83.19,.53,62.30,.45,83.57,.21,72.92,.16,56.88,.14,33.79,.01,90.00
2016.11.13-16:00,1.07,58.58,1.13,60.58,1.03,70.41,1.19,70.47,1.01,79.09,.73,79.48,.65,79.59,.54,62.99,.43,89.06,.22,70.31,.17,56.51,.14,35.60,.01,90.00
2016.11.13-17:00,1.13,61.96,1.17,62.56,1.03,69.70,1.21,72.34,1.00,78.97,.74,75.56,.66,75.32,.57,63.52,.40,92.74,.24,67.94,.19,57.72,.15,40.45,.02,90.00
2016.11.13-18:00,1.17,64.46,1.22,64.50,1.04,68.80,1.22,74.72,1.01,79.32,.77,72.60,.71,72.08,.61,64.02,.37,92.52,.27,66.35,.23,59.25,.18,44.89,.03,90.00
2016.11.13-19:00,1.20,66.13,1.27,66.36,1.08,67.93,1.24,77.45,1.03,80.40,.82,71.10,.76,70.58,.67,64.86,.35,87.22,.31,65.44,.27,60.59,.22,47.65,.04,90.00
2016.11.13-20:00,1.25,67.69,1.33,68.15,1.13,67.38,1.25,80.18,1.03,81.92,.86,70.64,.81,70.40,.72,66.08,.35,77.60,.34,64.74,.31,61.75,.25,49.07,.05,90.00
2016.11.13-21:00,1.31,69.84,1.38,70.19,1.19,67.49,1.24,82.58,1.02,83.25,.89,70.60,.85,70.87,.77,67.72,.37,66.79,.37,63.98,.33,62.85,.27,49.65,.06,90.00
2016.11.13-22:00,1.35,72.38,1.42,72.72,1.25,68.27,1.20,84.20,.98,83.64,.91,70.38,.86,71.38,.79,69.85,.40,58.25,.38,63.12,.34,63.78,.28,49.27,.06,90.00
2016.11.13-23:00,1.37,74.91,1.43,75.57,1.28,69.42,1.14,84.42,.92,82.32,.91,69.52,.85,71.48,.79,72.75,.44,53.71,.38,62.76,.32,64.72,.27,48.00,.06,90.00
2016.11.13-24:00,1.36,77.61,1.41,78.28,1.30,70.57,1.06,82.74,.85,78.66,.90,67.81,.82,70.91,.77,76.64,.47,52.81,.37,63.09,.29,65.37,.24,44.96,.05,90.00
2016.11.14-01:00,1.32,80.11,1.36,80.63,1.30,71.78,.99,79.29,.80,72.88,.89,65.74,.79,69.86,.72,81.57,.48,54.64,.35,64.20,.25,65.63,.20,39.92,.04,90.00
2016.11.14-02:00,1.25,82.60,1.30,83.06,1.29,73.69,.95,75.55,.80,67.06,.90,64.73,.77,69.29,.66,87.27,.48,58.04,.32,65.67,.20,64.93,.17,32.47,.02,90.00
2016.11.14-03:00,1.19,85.01,1.22,85.66,1.27,76.39,.93,72.61,.83,63.10,.92,65.28,.76,69.54,.59,92.62,.47,62.15,.29,67.44,.17,63.04,.16,25.26,.02,90.00
2016.11.14-04:00,1.11,86.96,1.12,87.94,1.22,79.27,.94,70.15,.88,60.84,.95,66.63,.78,70.07,.53,96.00,.46,66.30,.27,69.72,.16,60.80,.16,22.88,.01,90.00
2016.11.14-05:00,1.00,88.06,1.01,89.28,1.15,81.72,.94,67.77,.93,59.56,.98,68.15,.79,70.47,.46,95.79,.45,69.94,.27,72.42,.16,60.06,.17,27.03,.02,90.00
2016.11.14-06:00,.90,87.77,.90,89.37,1.08,83.62,.97,66.12,.99,59.60,1.01,70.10,.82,71.19,.41,90.77,.45,72.50,.28,74.47,.19,60.52,.20,34.32,.02,90.00
2016.11.14-07:00,.83,86.05,.83,88.06,1.02,84.91,1.01,65.76,1.05,61.17,1.05,72.58,.86,72.34,.39,81.28,.45,73.45,.30,75.19,.22,61.34,.23,41.41,.03,90.00
2016.11.14-08:00,.80,83.18,.79,85.38,.98,85.35,1.06,66.54,1.12,63.97,1.07,75.40,.89,73.75,.41,70.69,.46,72.91,.31,74.69,.25,62.13,.26,47.16,.04,90.00
2016.11.14-09:00,.80,78.27,.78,81.73,.95,84.79,1.11,67.84,1.18,67.34,1.09,78.20,.91,75.23,.46,62.75,.48,71.52,.31,73.44,.27,62.81,.28,51.38,.05,90.00
2016.11.14-10:00,.84,72.46,.80,77.88,.93,83.42,1.15,69.24,1.21,70.78,1.08,80.84,.91,76.85,.52,58.51,.49,70.19,.31,71.68,.28,63.03,.27,53.95,.05,90.00
2016.11.14-11:00,.90,66.94,.82,73.79,.90,80.96,1.17,70.18,1.21,73.61,1.04,82.99,.89,78.52,.57,57.29,.49,69.81,.29,69.88,.26,62.91,.26,55.12,.04,90.00
2016.11.14-12:00,.98,62.55,.86,70.12,.88,77.60,1.18,70.68,1.19,75.77,.99,84.72,.85,80.37,.59,58.29,.49,70.92,.27,68.04,.24,62.09,.22,54.45,.03,90.00
2016.11.14-13:00,1.06,59.55,.90,67.36,.86,73.66,1.18,70.85,1.15,77.27,.92,85.91,.80,82.15,.60,60.70,.48,73.49,.24,66.00,.20,60.55,.18,51.68,.02,90.00
2016.11.14-14:00,1.16,58.01,.93,66.18,.86,70.19,1.17,70.98,1.10,78.25,.85,86.20,.75,83.27,.60,63.74,.47,77.17,.21,63.55,.17,58.51,.13,46.49,.01,90.00
2016.11.14-15:00,1.23,58.58,.96,66.69,.87,68.02,1.17,71.33,1.06,78.69,.79,85.08,.70,82.96,.59,66.68,.44,81.51,.19,60.91,.14,56.40,.10,39.14,.00,90.00
2016.11.14-16:00,1.23,62.19,.97,68.41,.89,67.26,1.18,72.07,1.03,78.60,.75,82.26,.66,80.68,.56,69.02,.41,86.20,.19,59.54,.14,55.41,.09,33.32,.00,90.00
2016.11.14-17:00,1.22,66.45,.98,70.94,.91,67.87,1.19,73.54,1.02,78.41,.74,78.34,.65,76.86,.55,70.27,.37,90.07,.21,60.07,.15,56.04,.10,33.20,.01,90.00
2016.11.14-18:00,1.21,69.36,.99,73.28,.94,68.99,1.20,75.60,1.02,78.35,.75,74.38,.67,72.56,.55,69.90,.33,90.91,.24,61.75,.19,58.05,.13,38.12,.02,90.00
2016.11.14-19:00,1.22,69.73,1.00,74.68,.97,70.05,1.22,78.01,1.03,78.66,.79,71.37,.72,69.15,.57,68.44,.31,86.29,.28,63.30,.24,60.33,.17,43.22,.03,90.00
2016.11.14-20:00,1.24,70.40,1.02,75.43,1.02,71.18,1.22,80.60,1.06,79.59,.85,69.84,.79,67.51,.62,67.28,.30,76.15,.31,63.77,.28,62.23,.22,46.62,.04,90.00
2016.11.14-21:00,1.29,71.17,1.05,76.01,1.06,72.45,1.21,82.92,1.07,80.82,.89,69.24,.85,67.18,.69,67.03,.34,64.70,.33,63.12,.32,63.97,.26,49.01,.05,90.00
2016.11.14-22:00,1.31,73.85,1.07,76.81,1.10,73.79,1.18,84.45,1.05,81.63,.93,68.73,.89,67.34,.74,67.72,.39,56.34,.35,61.86,.33,65.64,.28,50.60,.06,90.00
2016.11.14-23:00,1.32,77.07,1.08,78.09,1.11,75.27,1.12,84.84,1.01,81.44,.94,67.86,.91,67.48,.77,69.34,.45,52.11,.36,60.58,.33,67.07,.29,51.10,.06,90.00
2016.11.14-24:00,1.31,79.89,1.07,79.79,1.10,76.76,1.04,83.72,.95,79.73,.95,66.55,.91,67.46,.78,71.92,.50,51.17,.35,59.77,.30,68.11,.27,50.18,.05,90.00
2016.11.15-01:00,1.36,80.62,1.04,81.68,1.07,78.26,.97,81.03,.90,76.42,.95,65.24,.90,67.62,.76,75.58,.52,52.60,.33,59.58,.25,68.59,.23,47.41,.04,90.00
2016.11.15-02:00,1.36,79.90,1.00,83.72,1.03,80.03,.93,77.55,.87,72.44,.96,64.92,.88,68.60,.72,80.25,.53,55.59,.30,59.68,.20,67.76,.19,41.93,.03,90.00
2016.11.15-03:00,1.24,81.94,.96,86.18,.99,82.34,.91,74.36,.87,69.01,.98,65.89,.87,70.43,.66,85.33,.52,59.27,.27,59.89,.15,64.60,.16,34.63,.02,90.00
2016.11.15-04:00,1.14,83.17,.90,89.35,.94,85.27,.91,71.80,.90,66.66,.99,67.73,.85,72.54,.58,89.84,.50,63.07,.25,60.45,.12,58.99,.14,29.71,.01,90.00
2016.11.15-05:00,1.05,84.60,.84,92.51,.87,88.42,.92,69.74,.93,65.30,1.01,69.88,.84,74.38,.50,92.50,.48,66.86,.24,61.83,.12,53.62,.14,30.89,.01,90.00
2016.11.15-06:00,.97,83.92,.74,95.01,.77,90.91,.94,67.75,.96,64.44,1.02,71.66,.84,75.41,.44,91.81,.46,70.65,.24,64.27,.14,51.93,.16,37.03,.01,90.00
2016.11.15-07:00,.96,79.47,.64,95.90,.67,91.79,.97,66.16,1.01,64.01,1.04,72.91,.85,75.59,.40,86.78,.46,73.95,.26,66.92,.17,52.97,.19,44.15,.02,90.00
2016.11.15-08:00,.90,84.31,.57,94.83,.59,90.97,1.02,66.11,1.06,64.78,1.07,74.32,.88,75.65,.40,78.82,.46,75.94,.27,68.44,.21,54.28,.22,49.44,.03,90.00
2016.11.15-09:00,.86,94.43,.53,92.86,.56,88.72,1.07,67.72,1.12,66.87,1.09,76.22,.90,76.02,.43,70.60,.47,75.84,.29,68.55,.24,55.60,.24,53.13,.03,90.00
2016.11.15-10:00,.84,100.99,.53,89.84,.56,85.17,1.11,70.27,1.16,69.72,1.10,78.53,.92,76.74,.48,64.00,.46,73.67,.29,67.52,.26,57.07,.26,55.94,.04,90.00
2016.11.15-11:00,.83,102.65,.55,85.31,.58,80.47,1.13,72.70,1.18,72.47,1.09,80.88,.91,77.70,.53,59.97,.46,70.71,.28,65.69,.27,58.55,.25,57.99,.04,90.00
2016.11.15-12:00,.79,104.00,.56,79.04,.60,74.62,1.12,74.21,1.16,74.44,1.04,82.99,.88,78.93,.57,58.89,.47,68.96,.26,63.44,.25,59.74,.23,58.97,.03,90.00
2016.11.15-13:00,.67,108.03,.57,71.58,.61,67.78,1.09,74.52,1.13,75.39,.97,84.55,.83,80.24,.59,60.27,.47,69.44,.24,60.82,.22,60.37,.18,58.23,.02,90.00
2016.11.15-14:00,.52,110.01,.58,65.47,.64,62.14,1.06,74.04,1.09,75.69,.90,85.33,.78,81.20,.59,62.97,.46,71.76,.21,57.75,.18,60.54,.13,54.98,.01,90.00
2016.11.15-15:00,.42,102.68,.61,62.61,.67,59.71,1.05,73.36,1.07,75.83,.84,84.96,.73,81.18,.58,65.82,.45,75.11,.19,54.36,.15,60.38,.09,47.77,.00,90.00
2016.11.15-16:00,.40,94.71,.63,62.74,.72,60.40,1.06,72.87,1.06,76.09,.79,83.20,.69,79.87,.56,68.19,.42,78.94,.18,51.52,.13,60.12,.07,37.30,.00,270.00
2016.11.15-17:00,.40,95.43,.65,64.29,.76,62.66,1.07,72.79,1.05,76.34,.76,79.93,.66,77.19,.54,69.55,.39,82.43,.18,50.76,.13,60.76,.07,33.67,.00,270.00
2016.11.15-18:00,.41,103.48,.64,66.13,.79,65.57,1.08,73.38,1.05,76.59,.75,75.82,.66,73.84,.53,69.86,.36,84.41,.21,52.23,.15,61.78,.09,38.11,.01,90.00
2016.11.15-19:00,.40,110.37,.62,66.96,.80,68.07,1.09,74.44,1.05,76.66,.77,71.77,.69,70.65,.54,69.37,.34,83.64,.24,55.16,.18,62.85,.13,43.15,.02,90.00
2016.11.15-20:00,.39,113.07,.60,66.31,.81,69.74,1.10,75.67,1.07,76.66,.82,68.62,.74,68.20,.58,68.32,.34,79.20,.28,57.98,.23,63.84,.18,46.36,.03,90.00
2016.11.15-21:00,.39,110.97,.61,65.13,.83,71.19,1.11,77.21,1.09,77.15,.88,67.05,.81,66.97,.64,67.27,.36,71.75,.32,59.54,.27,64.86,.23,48.65,.04,90.00
2016.11.15-22:00,.42,107.15,.65,65.01,.86,73.09,1.12,79.00,1.11,78.24,.94,66.82,.86,66.75,.69,66.70,.39,63.06,.34,59.65,.30,65.99,.27,50.56,.05,90.00
2016.11.15-23:00,.47,103.59,.69,66.01,.90,75.23,1.12,80.58,1.11,79.28,.98,67.11,.90,66.92,.74,66.96,.43,55.80,.35,58.84,.31,67.05,.29,51.77,.06,90.00
2016.11.15-24:00,.51,101.98,.72,66.85,.91,76.86,1.08,81.20,1.07,79.43,1.00,67.11,.91,66.90,.77,68.38,.48,52.00,.35,57.96,.29,67.73,.29,51.95,.05,90.00
2016.11.16-01:00,.52,101.96,.72,67.24,.88,77.79,1.02,80.41,1.02,78.22,1.00,66.67,.91,66.70,.78,71.27,.52,51.71,.34,57.52,.25,67.59,.26,50.70,.05,90.00
2016.11.16-02:00,.52,102.55,.71,67.97,.85,78.48,.96,78.38,.96,75.82,.99,66.29,.89,66.91,.76,75.83,.54,53.94,.31,57.37,.20,65.59,.22,47.29,.03,90.00
2016.11.16-03:00,.53,103.39,.70,69.21,.82,79.05,.94,75.70,.94,72.84,.99,66.51,.88,68.00,.71,81.72,.54,57.53,.28,57.03,.15,59.91,.18,41.56,.02,90.00
2016.11.16-04:00,.53,105.85,.68,70.49,.78,79.49,.93,72.91,.93,69.97,.99,67.37,.86,69.77,.64,88.18,.52,61.65,.25,56.54,.11,49.90,.15,36.14,.01,90.00
2016.11.16-05:00,.50,110.42,.63,72.28,.73,80.17,.93,70.54,.94,67.78,.99,68.82,.84,71.91,.55,94.00,.49,65.66,.22,56.03,.10,39.79,.13,35.21,.00,90.00
2016.11.16-06:00,.47,116.17,.57,74.25,.67,80.79,.93,68.63,.95,66.34,.99,70.46,.83,73.78,.47,97.35,.46,69.04,.21,56.12,.12,37.44,.14,40.94,.00,90.00
2016.11.16-07:00,.41,122.60,.50,74.45,.60,79.92,.94,66.93,.97,65.39,.99,71.81,.82,74.91,.40,95.87,.44,71.72,.22,57.58,.14,41.65,.15,49.58,.01,90.00
2016.11.16-08:00,.34,126.91,.44,71.56,.54,76.78,.96,65.94,1.01,65.23,1.01,72.88,.84,75.40,.36,88.39,.44,73.67,.23,59.68,.18,46.52,.18,55.71,.02,90.00
2016.11.16-09:00,.28,124.04,.41,66.71,.52,72.43,1.00,66.27,1.06,66.24,1.03,73.90,.86,75.52,.37,77.73,.45,74.28,.25,61.32,.22,50.57,.20,58.99,.03,90.00
2016.11.16-10:00,.25,111.52,.42,62.29,.54,68.88,1.05,67.91,1.11,68.33,1.05,75.07,.88,75.50,.41,67.68,.46,72.96,.26,61.82,.25,54.30,.22,61.11,.03,90.00
2016.11.16-11:00,.28,93.73,.48,59.74,.60,67.09,1.10,70.44,1.15,71.05,1.06,76.45,.89,75.54,.45,60.00,.46,70.00,.26,60.94,.26,57.73,.23,62.74,.03,90.00
2016.11.16-12:00,.35,80.19,.56,57.98,.66,65.93,1.12,73.04,1.16,73.72,1.05,77.90,.88,75.96,.50,55.80,.46,67.05,.26,58.95,.25,60.76,.21,63.71,.03,90.00
2016.11.16-13:00,.42,70.41,.64,55.80,.71,63.80,1.10,74.76,1.13,75.63,1.01,79.06,.85,76.73,.55,54.99,.47,65.89,.24,56.38,.23,63.56,.17,63.58,.02,90.00
2016.11.16-14:00,.51,62.91,.70,54.12,.74,61.31,1.06,75.39,1.08,76.51,.95,79.69,.80,77.63,.57,56.60,.47,67.22,.23,53.57,.19,66.08,.13,60.93,.01,90.00
2016.11.16-15:00,.61,60.78,.77,54.97,.78,60.75,1.04,75.43,1.03,76.46,.90,79.72,.76,78.20,.57,59.38,.46,70.52,.21,50.58,.14,68.13,.08,52.15,.00,90.00
2016.11.16-16:00,.72,63.22,.83,58.66,.83,63.03,1.03,75.50,1.02,75.90,.87,79.26,.73,78.12,.57,62.46,.44,74.72,.19,47.63,.11,69.07,.05,30.37,.01,270.00
2016.11.16-17:00,.78,67.39,.87,63.20,.87,66.35,1.04,75.46,1.01,75.04,.85,78.22,.70,77.20,.55,65.21,.40,78.98,.18,46.44,.09,68.01,.05,11.47,.01,270.00
2016.11.16-18:00,.82,71.68,.89,67.60,.89,69.64,1.04,75.37,1.01,74.19,.84,76.75,.69,75.59,.53,67.31,.36,82.15,.19,48.05,.09,65.56,.06,16.53,.00,270.00
2016.11.16-19:00,.84,75.43,.89,71.62,.90,72.72,1.04,75.63,1.02,73.81,.85,75.41,.70,73.86,.53,68.89,.34,82.88,.21,51.40,.11,62.83,.09,28.94,.00,90.00
2016.11.16-20:00,.84,77.38,.88,73.99,.89,74.46,1.04,75.85,1.04,73.46,.87,73.88,.73,71.79,.56,69.55,.34,80.59,.24,55.49,.15,61.43,.14,38.21,.02,90.00
2016.11.16-21:00,.84,77.70,.87,74.77,.88,74.87,1.04,76.11,1.06,73.15,.90,72.30,.78,69.45,.61,69.06,.36,75.57,.28,59.03,.19,61.27,.19,44.12,.03,90.00
2016.11.16-22:00,.85,78.16,.88,75.39,.89,75.11,1.05,76.88,1.09,73.48,.94,71.23,.83,67.46,.67,68.06,.38,68.67,.30,60.95,.23,61.82,.24,48.44,.04,90.00
2016.11.16-23:00,.90,79.53,.92,76.50,.92,75.73,1.05,77.99,1.11,74.44,.97,70.65,.88,66.14,.72,67.50,.42,61.37,.32,61.04,.26,62.72,.28,51.90,.05,90.00
2016.11.16-24:00,.95,81.08,.97,77.75,.95,76.29,1.05,78.77,1.11,75.41,.98,70.19,.92,65.53,.77,68.15,.46,55.85,.32,59.68,.27,63.37,.30,54.46,.05,90.00
2016.11.17-01:00,.97,81.67,.99,78.28,.97,76.00,1.01,78.29,1.07,75.46,.97,69.27,.93,65.18,.79,70.11,.51,53.13,.31,57.86,.25,63.76,.29,56.43,.05,90.00
2016.11.17-02:00,.97,81.43,.98,78.22,.96,75.16,.97,76.33,1.03,74.37,.95,67.95,.93,65.14,.79,73.52,.53,53.12,.29,56.24,.22,63.45,.25,57.50,.04,90.00
2016.11.17-03:00,.98,81.64,.99,78.72,.98,75.35,.95,74.32,1.01,73.33,.96,67.59,.94,66.81,.77,78.96,.55,55.75,.27,54.27,.18,59.74,.20,55.28,.02,90.00
2016.11.17-04:00,.97,81.80,.98,79.00,.98,75.75,.95,71.98,.99,72.00,.96,67.81,.93,69.45,.72,85.75,.54,59.98,.24,52.63,.13,51.99,.15,49.72,.00,90.00
2016.11.17-05:00,.94,82.26,.95,79.53,.97,76.58,.96,69.79,.98,70.61,.96,68.47,.91,72.50,.64,92.64,.52,64.47,.22,51.30,.11,41.74,.11,42.77,.01,270.00
2016.11.17-06:00,.90,83.87,.91,81.11,.94,78.35,.98,68.53,.99,69.72,.97,69.50,.89,75.37,.55,98.15,.48,68.08,.21,50.27,.11,36.10,.10,41.10,.01,270.00
2016.11.17-07:00,.85,86.16,.85,83.20,.91,80.52,1.00,68.14,1.00,69.35,.97,70.57,.87,77.46,.44,100.50,.45,70.55,.21,50.26,.12,38.95,.11,48.07,.00,270.00
2016.11.17-08:00,.78,87.56,.79,84.18,.85,81.76,1.01,68.24,1.01,69.32,.98,71.33,.85,78.48,.36,96.91,.43,72.46,.23,51.90,.15,45.31,.13,56.75,.01,90.00
2016.11.17-09:00,.71,87.48,.73,83.22,.80,81.57,1.04,69.09,1.05,69.88,1.00,71.88,.85,78.54,.33,85.61,.43,74.16,.24,54.44,.18,50.12,.15,61.15,.01,90.00
2016.11.17-10:00,.66,87.31,.69,81.05,.77,80.61,1.07,70.77,1.08,71.09,1.03,72.25,.87,77.85,.36,72.21,.44,75.11,.26,57.17,.21,53.40,.17,62.05,.02,90.00
2016.11.17-11:00,.64,89.15,.69,78.69,.76,79.56,1.09,73.05,1.11,72.78,1.06,72.70,.88,76.84,.42,62.39,.46,74.51,.26,59.31,.22,56.25,.19,61.80,.03,90.00
2016.11.17-12:00,.67,89.20,.73,76.89,.80,78.77,1.11,75.60,1.13,74.78,1.07,73.74,.89,76.28,.49,56.71,.46,72.38,.26,60.01,.23,58.93,.19,61.29,.03,90.00
2016.11.17-13:00,.70,88.00,.79,74.94,.83,77.36,1.11,77.53,1.12,76.58,1.06,75.18,.88,76.50,.55,54.56,.46,69.99,.25,59.41,.21,61.79,.18,60.71,.03,90.00
2016.11.17-14:00,.73,85.15,.83,72.11,.84,74.47,1.07,78.07,1.07,77.62,1.03,76.48,.85,77.29,.59,55.25,.46,68.98,.23,58.09,.19,64.99,.15,59.47,.02,90.00
2016.11.17-15:00,.76,80.38,.87,69.19,.86,70.87,1.03,77.27,1.02,77.55,.98,77.37,.80,78.24,.61,57.97,.45,70.30,.21,56.43,.15,68.21,.11,55.70,.01,90.00
2016.11.17-16:00,.82,78.07,.92,68.57,.90,69.36,1.02,76.58,.99,76.86,.95,78.34,.76,79.19,.61,61.94,.44,73.57,.18,53.99,.11,70.38,.07,44.38,.00,90.00
2016.11.17-17:00,.87,78.81,.97,70.00,.96,69.93,1.03,76.23,.99,75.73,.92,78.77,.73,79.16,.59,65.63,.41,77.42,.17,51.76,.08,71.17,.05,25.79,.01,270.00
2016.11.17-18:00,.91,81.06,1.00,72.41,.99,71.53,1.05,76.14,1.00,74.55,.91,78.46,.71,77.85,.57,68.32,.37,81.04,.16,51.41,.07,69.31,.05,17.70,.01,270.00
2016.11.17-19:00,.91,84.40,1.01,75.27,1.01,73.65,1.06,76.60,1.02,74.00,.91,78.10,.70,75.79,.55,69.86,.34,82.89,.18,53.11,.08,65.00,.07,25.87,.00,270.00
2016.11.17-20:00,.90,87.51,.99,77.70,1.00,75.46,1.06,77.56,1.04,74.23,.92,78.08,.72,73.71,.55,70.34,.32,81.66,.21,55.97,.10,61.46,.10,37.23,.00,90.00
2016.11.17-21:00,.87,88.29,.96,78.39,.99,75.77,1.06,78.43,1.06,74.58,.93,77.99,.75,71.66,.57,69.89,.33,77.61,.24,59.12,.14,59.93,.14,44.94,.01,90.00
2016.11.17-22:00,.85,86.66,.95,77.94,.99,75.12,1.06,79.29,1.08,74.90,.96,77.61,.81,69.64,.62,68.69,.36,71.72,.27,61.58,.18,59.60,.19,49.73,.02,90.00
2016.11.17-23:00,.87,84.68,.97,78.29,1.01,75.13,1.07,80.43,1.10,75.49,.97,76.94,.86,67.74,.67,67.14,.39,64.97,.29,62.75,.22,60.10,.24,53.33,.03,90.00
2016.11.17-24:00,.93,84.29,1.01,79.87,1.05,76.13,1.07,81.53,1.11,76.32,.98,76.02,.92,66.44,.73,66.32,.44,59.15,.29,62.29,.24,60.73,.27,56.11,.04,90.00
2016.11.18-01:00,.96,84.67,1.03,81.22,1.09,76.93,1.04,81.68,1.10,76.76,.97,74.91,.96,66.02,.78,67.21,.49,56.15,.29,60.36,.25,61.00,.28,58.20,.04,90.00
2016.11.18-02:00,.97,84.09,1.02,81.08,1.10,76.68,.98,79.83,1.06,76.00,.95,73.28,.97,66.09,.80,69.75,.53,55.82,.27,57.76,.23,61.16,.27,60.19,.04,90.00
2016.11.18-03:00,.98,83.19,1.03,80.42,1.12,76.50,.96,76.98,1.04,74.93,.94,71.85,.99,67.46,.80,74.09,.56,57.78,.26,54.33,.20,59.62,.23,60.91,.03,90.00
2016.11.18-04:00,.98,82.54,1.03,79.88,1.14,76.86,.95,74.36,1.02,74.22,.95,71.44,.99,70.35,.77,80.22,.56,61.60,.24,50.56,.15,54.78,.18,59.13,.01,90.00
2016.11.18-05:00,.96,81.71,1.00,79.05,1.13,77.27,.95,71.80,1.01,73.33,.95,71.48,.98,73.74,.72,87.16,.55,66.40,.22,47.96,.12,47.21,.13,55.01,.00,90.00
2016.11.18-06:00,.92,81.57,.97,78.92,1.12,78.39,.97,70.05,1.00,72.55,.94,71.71,.95,76.83,.63,93.38,.51,70.97,.21,47.29,.11,40.61,.10,50.64,.01,270.00
2016.11.18-07:00,.89,82.58,.94,80.00,1.10,80.45,1.00,69.64,1.01,72.21,.94,71.86,.91,78.92,.51,96.94,.47,74.26,.21,48.72,.11,40.45,.09,51.44,.01,270.00
2016.11.18-08:00,.84,83.87,.90,81.36,1.06,82.80,1.02,70.30,1.02,72.41,.94,71.90,.88,79.99,.40,95.70,.42,76.67,.22,51.99,.13,45.46,.10,56.90,.00,270.00
2016.11.18-09:00,.78,83.56,.84,81.21,1.01,84.14,1.04,71.39,1.03,72.93,.95,71.71,.86,80.24,.34,87.83,.40,79.05,.24,56.26,.15,50.41,.11,60.61,.01,90.00
2016.11.18-10:00,.67,82.15,.79,79.26,.96,84.16,1.06,72.68,1.06,73.70,.97,71.18,.86,79.67,.35,76.04,.40,80.64,.25,60.44,.17,53.85,.13,61.34,.01,90.00
2016.11.18-11:00,.59,79.69,.76,76.89,.91,83.63,1.06,74.07,1.08,74.62,1.00,70.41,.88,78.32,.41,66.36,.41,80.25,.26,64.04,.19,56.71,.15,60.84,.02,90.00
2016.11.18-12:00,.56,78.25,.78,75.94,.90,83.44,1.08,75.87,1.10,75.82,1.04,70.47,.90,77.09,.49,60.41,.42,77.88,.25,66.73,.20,59.25,.16,59.97,.02,90.00
2016.11.18-13:00,.57,77.05,.83,75.74,.92,83.15,1.09,77.66,1.10,77.13,1.07,71.65,.90,76.76,.56,57.50,.42,74.20,.24,68.35,.20,61.62,.16,58.74,.02,90.00
2016.11.18-14:00,.59,74.03,.87,74.59,.93,81.76,1.07,78.62,1.07,78.32,1.05,73.46,.87,77.49,.61,57.24,.42,71.02,.21,69.09,.18,64.21,.15,57.13,.02,90.00
2016.11.18-15:00,.62,68.88,.89,71.88,.92,78.69,1.03,78.09,1.02,78.69,1.02,75.05,.83,78.53,.63,58.80,.43,69.43,.19,69.02,.16,67.84,.13,55.75,.02,90.00
2016.11.18-16:00,.71,66.75,.93,69.91,.93,75.83,1.02,77.38,.99,78.46,1.00,77.00,.79,79.85,.64,62.19,.43,69.95,.16,66.68,.12,71.54,.10,52.40,.01,90.00
2016.11.18-17:00,.79,67.28,.98,69.74,.96,74.50,1.04,77.31,.99,78.10,.98,79.17,.76,81.01,.63,66.89,.41,72.45,.13,61.47,.09,74.18,.07,44.30,.00,90.00
2016.11.18-18:00,.84,68.25,1.01,70.26,.98,73.90,1.06,77.16,1.00,77.42,.97,80.40,.73,80.80,.61,71.60,.40,76.26,.13,56.64,.06,74.57,.06,32.52,.01,270.00
2016.11.18-19:00,.87,70.13,1.01,71.45,1.00,74.11,1.07,77.40,1.02,77.01,.97,80.93,.72,79.18,.58,75.41,.38,80.34,.13,55.12,.05,67.76,.06,25.30,.01,270.00
2016.11.18-20:00,.87,72.82,.99,73.34,.99,75.12,1.07,78.46,1.03,77.27,.97,81.36,.72,76.64,.56,77.23,.36,82.77,.15,56.37,.06,59.09,.08,31.05,.01,270.00
2016.11.18-21:00,.87,74.81,.96,74.93,.97,75.73,1.07,79.89,1.03,77.85,.98,81.73,.75,73.81,.55,76.87,.35,82.61,.18,58.36,.10,56.03,.11,41.32,.00,90.00
2016.11.18-22:00,.86,74.65,.94,74.89,.96,74.75,1.07,81.03,1.04,78.10,.99,81.73,.79,71.23,.57,75.12,.36,80.52,.22,59.99,.13,55.84,.15,49.25,.01,90.00
2016.11.18-23:00,.88,73.97,.95,74.59,.97,73.44,1.06,82.00,1.04,78.02,.99,81.17,.84,68.84,.60,72.54,.38,76.50,.24,60.81,.17,57.02,.20,55.21,.02,90.00
2016.11.18-24:00,.92,75.15,.99,76.04,1.01,73.66,1.05,83.03,1.05,77.95,.98,79.91,.89,66.62,.65,69.76,.40,70.64,.26,60.49,.21,58.86,.24,60.10,.03,90.00
2016.11.19-01:00,.97,77.57,1.03,78.50,1.05,74.88,1.03,83.71,1.04,77.87,.96,78.24,.93,65.40,.69,68.54,.43,65.44,.27,59.20,.22,60.13,.26,63.59,.04,90.00
2016.11.19-02:00,.99,79.03,1.04,80.03,1.06,75.32,.98,82.86,1.01,76.99,.94,76.30,.97,65.36,.74,69.79,.47,62.96,.27,57.96,.22,60.57,.26,65.76,.04,90.00
2016.11.19-03:00,.98,78.88,1.03,79.92,1.07,74.59,.92,79.75,.98,74.89,.92,74.04,.99,66.18,.76,72.97,.50,62.90,.26,57.60,.21,60.48,.23,67.16,.03,90.00
2016.11.19-04:00,.98,78.31,1.02,79.47,1.07,74.06,.90,76.04,.97,73.00,.93,72.69,1.02,68.69,.75,77.96,.51,64.84,.25,57.49,.18,58.44,.19,66.71,.02,90.00
2016.11.19-05:00,.96,76.39,.99,78.69,1.06,73.54,.91,72.65,.98,71.69,.94,72.53,1.02,72.38,.72,84.08,.52,68.00,.23,57.80,.14,54.49,.14,63.83,.01,90.00
2016.11.19-06:00,.94,74.08,.96,78.06,1.06,73.41,.93,70.19,1.00,71.05,.96,73.24,1.02,76.53,.66,90.20,.50,71.86,.22,58.84,.12,49.39,.10,57.44,.01,270.00
2016.11.19-07:00,.93,73.45,.94,78.77,1.06,74.75,.97,69.17,1.02,71.20,.97,74.39,.99,80.17,.56,94.72,.46,75.41,.20,60.57,.10,46.43,.07,49.89,.01,270.00
2016.11.19-08:00,.92,74.42,.92,80.98,1.05,77.60,1.00,69.60,1.04,72.10,.96,75.48,.95,82.59,.45,95.69,.41,77.64,.20,62.70,.11,49.20,.07,50.49,.01,270.00
2016.11.19-09:00,.89,73.93,.87,82.79,1.01,80.35,1.02,70.61,1.04,73.37,.94,76.16,.90,83.82,.37,91.59,.38,79.61,.21,65.55,.12,54.27,.08,55.65,.00,270.00
2016.11.19-10:00,.88,70.48,.81,82.58,.96,81.54,1.02,71.61,1.05,74.52,.92,75.97,.87,83.85,.34,83.09,.37,82.27,.22,69.01,.14,57.29,.10,56.79,.01,90.00
2016.11.19-11:00,.90,67.22,.77,81.24,.90,81.51,1.04,72.65,1.06,75.44,.93,74.75,.86,82.62,.37,73.96,.38,83.80,.22,72.57,.15,59.22,.11,55.91,.01,90.00
2016.11.19-12:00,.95,66.25,.75,80.70,.86,81.53,1.05,74.07,1.08,76.37,.94,73.10,.86,80.52,.43,66.28,.39,82.60,.22,75.96,.16,61.58,.13,56.16,.02,90.00
2016.11.19-13:00,1.03,68.15,.77,80.90,.86,81.65,1.07,75.97,1.09,77.56,.98,72.27,.87,78.71,.50,61.25,.39,79.27,.21,79.08,.17,63.80,.14,56.52,.02,90.00
2016.11.19-14:00,1.11,70.68,.79,80.20,.86,80.78,1.08,77.60,1.09,78.83,1.00,72.54,.87,78.15,.56,59.45,.39,75.67,.19,81.72,.16,65.51,.15,56.04,.02,90.00
2016.11.19-15:00,1.14,72.29,.79,77.21,.84,77.81,1.05,77.96,1.05,79.54,.99,73.08,.84,78.44,.60,60.08,.39,73.09,.16,83.67,.15,67.67,.15,55.63,.02,90.00